DW4480 Weather Reports


Display with metric or nautical units.
time (UTC)temp
F
wind
direction
speed
MPH
gust
MPH
rain 1hr
in
rain 24hr
in
rain mn
in
humidity
%
barometer
mb
20210307054719 34 272 1.0 6.0 0.00 0.04 0.00 92 1025.2
20210307053148 34 261 4.0 7.0 0.00 0.04 0.00 92 1025.4
20210307051604 34 265 3.0 9.0 0.00 0.04 0.00 93 1025.5
20210307050134 33 273 0.0 3.0 0.00 0.04 0.00 93 1025.6
20210307044614 33 273 0.0 4.0 0.00 0.04 0.00 93 1025.7
20210307043240 33 273 0.0 2.0 0.00 0.04 0.00 93 1025.8
20210307041610 33 274 0.0 2.0 0.00 0.04 0.00 93 1025.9
20210307040129 33 274 1.0 3.0 0.00 0.04 0.00 93 1025.9
20210307034621 33 246 0.0 3.0 0.00 0.04 0.00 93 1026.0
20210307033307 33 261 2.0 6.0 0.00 0.04 0.00 93 1026.0
20210307031551 32 257 0.0 6.0 0.00 0.04 0.00 94 1026.1
20210307030142 32 253 2.0 4.0 0.00 0.04 0.00 94 1026.3
20210307024637 32 251 1.0 3.0 0.00 0.04 0.00 94 1026.3
20210307023224 31 224 0.0 2.0 0.00 0.04 0.00 94 1026.5
20210307021611 31 222 0.0 0.0 0.00 0.04 0.00 94 1026.6
20210307020316 31 222 0.0 2.0 0.00 0.04 0.00 93 1027.0
20210307014541 31 222 1.0 3.0 0.00 0.04 0.00 93 1027.2
20210307013043 31 222 1.0 3.0 0.00 0.04 0.00 94 1027.3
20210307011603 31 229 0.0 0.0 0.00 0.04 0.00 93 1027.6
20210307010203 32 229 0.0 2.0 0.00 0.04 0.00 93 1027.7
20210307004555 32 5 0.0 1.0 0.00 0.04 0.00 94 1027.7
20210307003040 32 5 0.0 0.0 0.00 0.04 0.00 94 1027.9
20210307001543 31 5 0.0 0.0 0.00 0.04 0.00 93 1028.1
20210307000241 31 5 0.0 0.0 0.00 0.04 0.00 93 1028.2
20210306234537 31 5 0.0 0.0 0.00 0.04 0.00 94 1028.3
20210306233116 30 5 0.0 0.0 0.00 0.04 0.00 93 1028.5
20210306231540 29 5 0.0 0.0 0.00 0.04 0.00 93 1028.6
20210306230051 29 5 0.0 0.0 0.00 0.04 0.00 92 1028.8
20210306224515 29 5 0.0 0.0 0.00 0.04 0.04 92 1029.0
20210306223058 30 5 0.0 0.0 0.00 0.04 0.04 92 1028.9
20210306221722 31 5 0.0 0.0 0.00 0.04 0.04 92 1029.0
20210306214635 32 5 0.0 0.0 0.00 0.04 0.04 92 1029.1
20210306213128 32 5 0.0 0.0 0.00 0.04 0.04 91 1029.3
20210306211624 33 5 0.0 0.0 0.00 0.04 0.04 91 1029.4
20210306210201 33 5 0.0 0.0 0.00 0.04 0.04 90 1029.3
20210306204655 34 5 0.0 0.0 0.00 0.04 0.04 90 1029.4
20210306203129 34 5 0.0 0.0 0.00 0.04 0.04 89 1029.6
20210306201609 35 5 0.0 0.0 0.00 0.04 0.04 89 1029.7
20210306200213 35 5 0.0 0.0 0.00 0.04 0.04 87 1029.9
20210306194600 36 5 0.0 0.0 0.00 0.04 0.04 87 1030.0
20210306193142 37 5 0.0 0.0 0.00 0.04 0.04 87 1030.1
20210306191620 37 5 0.0 0.0 0.00 0.04 0.04 87 1030.0
20210306190123 38 5 0.0 0.0 0.00 0.04 0.04 87 1030.2
20210306184603 38 5 1.0 3.0 0.00 0.04 0.04 86 1030.3
20210306183245 38 5 1.0 3.0 0.00 0.04 0.04 86 1030.4
20210306181557 38 15 2.0 4.0 0.00 0.04 0.04 85 1030.6
20210306180118 39 355 3.0 5.0 0.00 0.04 0.04 85 1030.5
20210306174643 39 360 1.0 3.0 0.00 0.04 0.04 84 1030.5
20210306173130 39 335 0.0 3.0 0.00 0.04 0.04 85 1030.6
20210306171620 39 5 3.0 4.0 0.00 0.04 0.04 86 1030.5
20210306170348 39 9 3.0 5.0 0.00 0.04 0.04 84 1030.5
20210306164612 40 25 3.0 5.0 0.00 0.04 0.04 83 1030.6
20210306163148 40 28 3.0 6.0 0.00 0.04 0.04 83 1030.6
20210306161648 40 22 0.0 2.0 0.00 0.04 0.04 84 1030.5
20210306160131 40 18 2.0 5.0 0.00 0.04 0.04 82 1030.6
20210306154655 40 22 3.0 5.0 0.00 0.04 0.04 83 1030.9
20210306153102 40 5 2.0 3.0 0.00 0.04 0.04 84 1031.0
20210306151624 40 13 2.0 4.0 0.00 0.04 0.04 84 1031.1
20210306150102 40 360 3.0 5.0 0.00 0.04 0.04 86 1031.3
20210306144542 40 335 4.0 6.0 0.00 0.04 0.04 86 1031.3
20210306143135 40 305 0.0 3.0 0.00 0.04 0.04 89 1031.5
20210306141540 40 292 0.0 3.0 0.00 0.04 0.04 89 1031.5
20210306140023 40 290 2.0 7.0 0.00 0.04 0.04 89 1031.7
20210306134611 40 263 2.0 4.0 0.01 0.04 0.04 89 1031.9
20210306133218 40 292 2.0 5.0 0.01 0.04 0.04 89 1031.9
20210306131536 40 320 0.0 3.0 0.01 0.04 0.04 90 1032.0
20210306130156 39 288 0.0 3.0 0.01 0.04 0.04 90 1032.2
20210306124525 39 290 1.0 4.0 0.00 0.03 0.03 89 1032.4
20210306123058 39 301 1.0 6.0 0.00 0.03 0.03 89 1032.5
20210306121549 40 323 0.0 0.0 0.00 0.03 0.03 88 1032.8
20210306120103 39 323 0.0 4.0 0.00 0.03 0.03 88 1033.1
20210306114526 40 317 2.0 8.0 0.00 0.03 0.03 86 1033.3
20210306113350 41 325 3.0 5.0 0.00 0.03 0.03 85 1033.2
20210306111529 41 296 0.0 4.0 0.00 0.03 0.03 87 1033.2
20210306110354 41 276 2.0 5.0 0.00 0.03 0.03 87 1033.3
20210306104550 41 286 1.0 4.0 0.00 0.03 0.03 89 1033.5
20210306103247 40 317 1.0 4.0 0.00 0.03 0.03 90 1033.4
20210306101649 39 325 0.0 4.0 0.00 0.03 0.03 91 1033.6
20210306100306 39 5 3.0 6.0 0.00 0.03 0.03 91 1033.5
20210306094653 39 355 3.0 10.0 0.00 0.03 0.03 91 1033.6
20210306093121 39 327 6.0 10.0 0.00 0.03 0.03 91 1033.5
20210306091619 39 277 3.0 7.0 0.00 0.03 0.03 93 1033.5
20210306090320 37 269 2.0 6.0 0.00 0.03 0.03 93 1033.5
20210306084639 36 229 1.0 4.0 0.00 0.03 0.03 93 1033.6
20210306083159 36 220 1.0 4.0 0.01 0.03 0.03 93 1033.5
20210306081603 36 231 1.0 3.0 0.02 0.03 0.03 94 1033.5
20210306080123 35 222 1.0 3.0 0.03 0.03 0.03 94 1033.5
20210306074625 35 257 0.0 2.0 0.03 0.03 0.03 94 1033.3
20210306073235 34 293 0.0 2.0 0.02 0.02 0.02 94 1033.5
20210306071647 35 338 0.0 3.0 0.01 0.01 0.01 94 1033.4
20210306070045 34 273 0.0 1.0 0.00 0.00 0.00 94 1033.1
20210306064605 33 273 0.0 0.0 0.00 0.00 0.00 94 1033.1
20210306063146 33 273 0.0 2.0 0.00 0.00 0.00 94 1032.9
20210306061549 33 9 2.0 4.0 0.00 0.00 0.00 94 1033.0